Starlink 30209

operational
NORAD ID: 57307 Int'l Des: 2023-096 Owner: SPXS Country: US Constellation: starlink
LEOCIRCULAR

About Starlink 30209

Description loading...

Live Position

Loading 3D Globe...

Upcoming Passes

Altitude History

Altitude vs Time

uPlot chart will show altitude changes over time

Two-Line Element Set

1 57307U 23096T 25353.91668981 .00108950 00000-0 20503-2 0 9993
2 57307 42.9829 258.1820 0032586 195.9432 299.6558 15.46877030 5887
Epoch: Dec 19, 2025 • Age: 10 hours

Current Status

Altitude 423.0 km
Velocity 7.67 km/s
Sub-Earth Point -39.45°S, 68.67°W
Launch Date Jul 10, 2023
Age 2.4 years
Type internet

Technical Details

Classification Payload
Mass 730.00 kg
Dry Mass 700.00 kg
Total Mass 730.00 kg
Length 0.30 m
Diameter 4.10 m
Span 29.00 m
Shape Box + pan
Manufacturer SPXS
Bus Type Starlink V2M
Phase Status In Orbit
Owner/State SPXS/US

Large Constellations

Loading constellations...